Wind_Speed
18 17 15 15 12 10 10 10 13 16 18 18 18 18 18 18 17 16 16 18 19 22 19 17 16 15 14 9 7 3 15 22 29 19 6 14 12 18 15 16 22 19 18 22 24
18 17 13 12 13 12 11 12 14 17 18 19 19 19 18 17 16 14 14 15 17 20 19 15 13 14 19 17 8 15 22 18 14 13 5 13 17 17 15 10 14 16 19 21 21
18 16 14 11 13 14 13 14 15 17 19 19 21 20 18 17 16 14 14 15 17 19 18 17 15 15 16 13 11 5 11 10 11 6 8 9 7 12 9 14 12 14 15 16 17
22 19 18 15 13 14 15 15 16 18 19 21 20 20 20 18 16 15 14 14 15 17 19 17 16 17 18 8 5 2 3 9 5 3 2 2 7 13 15 16 15 13 12 14 16
25 24 21 17 14 15 15 16 16 18 20 20 21 21 19 18 16 14 14 14 14 14 16 16 17 19 20 14 7 6 3 5 3 3 2 2 1 3 10 17 18 16 14 16 17
26 26 24 21 17 17 17 18 18 17 20 21 21 21 19 17 17 15 14 13 12 12 12 13 13 12 15 11 17 11 3 3 0 2 4 7 8 7 17 20 20 15 16 15 17
29 28 27 23 20 19 19 18 19 19 19 21 23 22 21 18 17 15 13 12 11 11 10 11 12 12 8 11 10 2 5 5 6 9 9 11 7 5 12 18 18 18 17 17 15
31 30 28 25 22 19 20 20 20 21 21 21 22 22 20 20 17 15 14 12 11 12 11 11 10 9 9 5 1 3 3 6 1 7 13 9 10 12 19 18 18 21 20 21 21
32 32 31 29 26 22 22 22 21 22 23 22 22 22 20 20 18 16 15 14 13 12 12 12 11 9 8 8 11 10 8 13 18 7 10 11 13 15 20 26 22 20 24 25 23
33 32 31 31 30 26 24 24 23 24 23 24 24 23 23 21 18 17 16 15 14 14 13 13 13 12 10 10 12 7 4 6 7 11 16 6 3 7 20 24 22 21 20 23 24
36 34 32 32 31 30 27 27 26 25 24 24 23 22 21 21 19 18 17 17 15 14 14 15 14 11 13 18 14 17 12 12 6 6 15 15 9 9 12 21 19 20 21 23 24
39 35 34 32 32 31 30 30 26 26 25 24 23 23 21 20 20 18 18 18 17 16 15 12 12 12 21 19 16 12 18 22 18 11 21 11 8 8 7 22 21 24 27 19 23
40 40 36 35 33 32 31 32 30 29 27 24 22 22 20 20 21 19 18 19 17 16 15 16 17 16 18 12 12 12 14 24 25 24 9 12 10 8 10 25 26 24 28 19 24
37 40 40 38 35 34 36 31 31 30 28 24 25 21 22 21 20 19 16 19 18 18 16 18 19 18 15 16 14 13 15 18 22 13 10 13 19 9 18 22 21 27 19 27 25
30 34 39 40 39 38 31 31 32 31 30 23 27 25 24 20 22 21 20 20 19 18 19 17 18 19 12 10 18 16 22 18 9 11 15 9 15 17 11 18 32 26 18 40 29
24 28 33 37 41 41 35 35 34 32 33 26 29 26 26 22 24 24 22 21 20 20 21 16 22 21 15 16 15 14 19 12 13 12 8 7 10 15 24 27 21 27 33 34 31
23 23 26 32 37 39 38 35 35 37 26 27 28 25 22 23 26 27 22 21 21 20 15 18 18 13 14 14 14 14 17 15 14 6 10 14 13 19 28 20 23 32 31 33 24
23 23 25 26 29 37 45 43 41 29 26 16 9 16 25 23 24 25 24 23 24 20 18 15 15 12 7 11 14 16 16 14 15 12 16 16 16 19 23 26 21 17 21 28 20
28 26 26 23 28 38 44 49 40 27 25 28 17 15 17 25 20 24 24 22 23 22 21 16 6 16 14 15 17 14 14 12 18 17 20 18 18 20 24 33 29 21 8 10 12
31 29 27 22 24 36 43 45 37 26 29 35 23 24 17 13 20 21 23 18 20 22 21 17 10 6 14 17 14 17 14 17 17 17 17 13 12 20 21 25 28 26 12 9 9
32 32 26 28 24 30 36 32 30 38 40 40 31 31 31 20 17 19 16 16 17 21 22 22 19 16 18 18 14 13 15 14 15 18 23 24 20 29 34 40 18 22 20 5 12
33 34 32 31 28 25 23 26 34 43 46 47 39 30 29 30 24 25 19 17 14 10 19 22 27 20 16 8 13 10 12 13 20 22 18 22 22 27 30 38 35 13 27 2 11
33 33 32 31 29 23 26 30 35 38 46 47 46 35 31 35 30 30 24 28 24 25 26 29 32 32 26 23 16 17 16 23 24 30 28 25 23 31 31 37 45 25 13 8 9
31 29 34 33 32 33 32 34 35 40 38 39 43 41 38 39 32 35 40 32 28 29 33 34 27 27 29 23 23 23 23 28 19 9 12 17 21 26 29 31 30 22 10 10 13
33 37 40 39 38 35 35 34 38 39 39 38 33 44 43 40 40 36 39 41 34 33 31 32 30 31 27 26 30 27 19 11 12 16 21 18 25 27 30 33 27 28 27 22 25
36 35 30 33 36 42 40 40 40 43 42 40 33 36 40 43 41 43 42 33 39 38 35 31 32 30 28 28 26 27 30 20 20 22 26 25 22 25 27 29 32 37 35 33 19
28 32 30 31 28 33 43 43 42 47 41 35 36 38 39 44 49 51 48 39 38 41 36 36 37 33 36 29 29 32 22 25 26 26 28 29 28 31 37 32 30 36 31 14 13
Wind_Direction
222 222 218 213 213 216 213 205 198 191 186 184 178 173 168 165 164 162 154 151 148 149 145 151 153 152 142 150 142 32 18 113 76 63 19 10 345 7 48 6 16 20 37 23 20
220 222 227 214 207 211 208 208 198 193 190 183 178 174 172 166 166 162 154 149 149 151 149 148 172 167 161 163 64 2 327 75 77 133 57 10 333 352 19 27 355 20 34 27 20
226 226 227 224 216 208 208 207 203 196 193 189 180 176 174 168 166 161 156 149 151 156 153 157 168 181 174 173 128 24 106 138 168 187 226 158 353 309 358 36 20 23 29 31 14
226 228 232 230 225 214 211 206 204 199 195 193 189 181 177 173 168 166 158 152 152 158 163 163 172 182 179 145 40 86 71 111 5 156 318 42 163 332 343 19 32 24 23 23 17
225 227 233 230 230 222 217 214 207 203 199 198 194 193 183 176 175 173 167 161 156 165 169 172 182 183 201 176 198 198 215 183 177 195 326 328 154 263 341 3 22 15 17 14 7
227 229 232 234 232 225 221 216 212 207 203 200 202 202 191 177 180 178 173 171 165 170 177 183 206 207 204 217 174 208 256 173 325 297 334 4 330 293 333 356 4 3 10 7 2
229 230 234 235 232 223 219 218 218 209 209 204 206 208 201 176 191 186 183 183 179 186 188 194 197 209 224 209 201 212 187 163 77 3 315 348 356 322 335 346 4 357 357 355 357
230 231 234 237 237 226 222 220 220 218 212 209 209 210 210 202 201 197 192 195 191 195 203 198 203 191 197 218 144 84 164 182 249 202 266 323 325 346 348 342 0 352 353 354 360
233 232 232 234 238 231 224 224 223 220 217 213 211 214 209 212 210 210 207 206 206 209 211 210 204 200 198 172 141 131 38 24 317 205 249 297 297 349 323 329 345 356 348 351 351
232 233 233 233 235 235 229 226 225 222 218 217 216 216 214 215 216 218 218 217 211 215 221 218 212 206 193 173 170 155 262 314 313 277 281 294 302 285 289 305 328 347 341 343 345
232 233 232 232 233 234 230 228 229 226 222 220 217 223 220 221 220 222 223 225 223 218 221 224 213 204 193 185 205 179 197 175 153 256 263 288 293 299 275 318 329 331 343 337 343
231 231 231 232 231 232 231 229 230 230 224 223 217 223 221 223 223 223 224 226 224 221 219 220 209 202 220 213 225 202 207 203 208 267 269 265 263 295 316 291 310 321 333 333 346
233 230 229 229 230 232 232 231 227 226 224 227 219 221 218 219 224 223 223 227 222 222 215 214 203 216 228 241 215 203 217 222 237 236 274 267 269 296 320 278 293 310 319 327 343
232 230 228 227 228 230 230 229 227 229 225 224 230 222 222 217 220 222 224 229 224 224 207 222 223 227 237 231 219 211 223 225 241 258 247 265 289 309 291 274 272 284 295 330 340
230 229 228 227 226 228 231 231 229 226 228 226 229 227 227 223 225 225 217 224 224 221 216 209 227 242 233 227 221 215 233 245 281 260 271 277 271 311 293 252 283 275 302 323 330
229 227 227 228 227 225 225 227 226 224 224 233 227 229 229 224 232 227 218 221 220 221 219 216 219 230 235 233 233 232 253 262 268 273 271 291 274 270 248 268 271 272 290 320 328
229 227 226 229 229 224 225 228 227 226 218 223 237 232 234 224 231 233 220 227 228 229 227 228 235 240 236 234 234 233 248 256 255 240 295 322 305 305 282 304 290 289 312 322 317
231 228 227 233 230 222 223 222 224 219 216 200 249 253 230 229 225 231 233 225 223 217 208 201 227 241 243 247 248 235 242 253 254 231 255 272 290 307 256 268 255 255 289 306 302
230 230 230 236 232 224 221 221 220 213 197 189 193 240 245 220 219 230 235 225 222 217 217 195 230 231 253 251 245 259 259 262 258 265 258 259 293 295 290 271 264 291 235 307 298
226 226 228 231 233 222 220 222 214 203 212 193 195 216 207 225 224 222 240 229 226 217 203 188 192 226 194 236 254 260 258 263 272 278 267 252 289 307 270 272 279 295 261 301 309
224 224 223 224 227 223 219 216 199 204 204 194 195 204 201 189 222 238 246 239 232 222 203 187 208 178 210 237 273 258 248 256 264 262 263 271 259 282 272 291 289 280 217 334 320
223 224 221 221 223 221 210 201 193 205 206 192 195 195 198 187 200 214 232 225 237 229 222 214 218 198 190 252 295 275 282 241 257 266 260 256 266 276 290 292 316 222 177 126 331
224 221 223 222 219 213 204 197 200 208 216 199 198 199 198 189 199 192 205 216 207 207 209 210 233 224 209 215 225 237 244 267 250 258 267 271 271 272 285 295 301 305 139 119 329
225 221 221 218 216 214 209 203 205 210 221 218 209 200 204 196 198 194 209 212 213 218 215 220 224 229 228 222 230 246 243 249 278 301 299 278 268 273 279 274 277 295 274 296 303
225 220 218 217 212 212 212 210 208 211 220 222 215 210 204 211 201 199 209 209 202 210 217 223 233 241 238 237 240 248 249 248 284 306 301 313 297 290 288 295 291 296 300 292 271
227 230 228 230 224 212 211 211 212 216 221 220 211 211 210 209 206 205 208 217 216 223 220 230 236 231 241 243 250 258 267 252 240 251 252 261 269 291 269 295 300 300 301 293 255
226 227 223 222 228 228 215 212 213 221 229 219 211 214 216 211 214 218 218 216 233 243 229 227 241 243 250 247 255 254 266 250 240 246 253 261 258 265 285 286 279 281 284 261 233
Height
5891 5893 5896 5897 5899 5900 5901 5903 5905 5907 5909 5912 5914 5916 5919 5921 5922 5924 5926 5928 5928 5930 5931 5933 5933 5935 5936 5936 5935 5941 5937 5932 5933 5940 5947 5945 5939 5941 5942 5941 5937 5936 5932 5929 5925
5889 5891 5893 5895 5897 5899 5900 5902 5905 5906 5909 5911 5914 5916 5919 5921 5923 5925 5927 5928 5930 5931 5931 5934 5935 5934 5934 5937 5936 5937 5941 5938 5940 5948 5949 5948 5941 5940 5941 5942 5937 5935 5932 5929 5928
5885 5888 5891 5893 5896 5897 5899 5901 5904 5905 5908 5910 5914 5916 5919 5920 5923 5925 5927 5928 5930 5932 5932 5933 5936 5937 5937 5938 5939 5943 5944 5944 5946 5948 5948 5947 5943 5940 5942 5942 5939 5936 5934 5931 5930
5883 5886 5889 5891 5894 5896 5898 5900 5902 5905 5907 5910 5913 5916 5918 5921 5925 5925 5926 5928 5929 5931 5932 5934 5936 5937 5938 5938 5940 5945 5944 5943 5944 5947 5947 5947 5946 5939 5938 5942 5940 5938 5935 5932 5930
5879 5883 5886 5888 5891 5894 5896 5898 5901 5903 5906 5908 5912 5915 5918 5921 5923 5925 5927 5928 5929 5931 5933 5935 5935 5936 5937 5937 5941 5944 5943 5944 5945 5946 5946 5946 5944 5943 5940 5938 5938 5937 5934 5931 5929
5876 5880 5883 5885 5889 5892 5894 5897 5899 5901 5904 5907 5910 5914 5917 5921 5922 5925 5926 5928 5929 5930 5932 5934 5936 5937 5937 5938 5939 5940 5942 5944 5946 5946 5946 5946 5945 5942 5938 5937 5936 5937 5933 5931 5930
5873 5877 5880 5883 5886 5889 5891 5894 5897 5899 5902 5905 5908 5911 5915 5920 5921 5924 5925 5926 5928 5929 5931 5934 5935 5937 5939 5939 5938 5942 5944 5945 5945 5946 5945 5946 5946 5945 5942 5936 5935 5934 5932 5932 5930
5869 5872 5876 5879 5882 5886 5888 5891 5894 5897 5900 5902 5905 5909 5914 5916 5919 5922 5924 5925 5926 5928 5931 5932 5934 5936 5937 5940 5942 5943 5945 5944 5944 5943 5946 5946 5943 5943 5939 5938 5935 5932 5931 5929 5928
5864 5868 5872 5875 5879 5883 5886 5888 5891 5894 5896 5899 5903 5907 5911 5913 5916 5919 5922 5924 5925 5927 5929 5931 5933 5935 5938 5939 5940 5941 5943 5945 5944 5943 5944 5945 5943 5940 5938 5936 5934 5933 5928 5927 5927
5859 5863 5867 5871 5875 5878 5882 5884 5887 5890 5893 5896 5899 5904 5907 5910 5914 5916 5919 5921 5924 5925 5928 5930 5931 5933 5936 5938 5937 5937 5939 5943 5944 5945 5943 5944 5944 5941 5939 5938 5935 5934 5932 5930 5928
5853 5857 5862 5866 5870 5873 5877 5880 5884 5888 5891 5893 5898 5900 5904 5907 5910 5913 5915 5918 5921 5924 5925 5928 5929 5932 5935 5934 5934 5936 5940 5941 5943 5944 5943 5943 5943 5942 5941 5937 5934 5934 5932 5930 5928
5846 5851 5856 5860 5864 5867 5871 5875 5880 5885 5888 5889 5893 5896 5900 5903 5907 5910 5913 5917 5919 5921 5923 5926 5927 5930 5930 5930 5932 5937 5938 5940 5941 5941 5941 5941 5942 5940 5939 5935 5934 5933 5931 5930 5928
5838 5844 5849 5854 5858 5863 5866 5870 5875 5879 5883 5887 5890 5893 5897 5900 5903 5906 5910 5912 5915 5918 5922 5922 5923 5925 5928 5929 5931 5934 5937 5939 5938 5937 5939 5937 5938 5939 5939 5934 5932 5931 5930 5929 5927
5830 5836 5842 5847 5853 5855 5858 5865 5870 5875 5879 5886 5887 5890 5893 5897 5901 5902 5905 5910 5911 5915 5917 5919 5920 5921 5924 5927 5929 5932 5932 5933 5933 5936 5937 5936 5935 5935 5934 5932 5929 5928 5928 5927 5925
5823 5828 5833 5839 5845 5849 5858 5862 5865 5870 5874 5882 5883 5887 5889 5893 5895 5899 5902 5905 5908 5911 5914 5917 5917 5919 5922 5924 5925 5930 5927 5929 5932 5933 5933 5935 5933 5931 5930 5928 5925 5923 5919 5922 5923
5817 5821 5826 5832 5836 5843 5849 5853 5858 5865 5868 5873 5877 5882 5885 5889 5891 5895 5898 5901 5904 5906 5908 5912 5913 5915 5920 5921 5923 5925 5925 5929 5929 5930 5930 5930 5931 5929 5928 5925 5920 5918 5920 5920 5917
5812 5815 5819 5823 5829 5837 5843 5848 5853 5854 5869 5870 5872 5877 5881 5885 5887 5889 5893 5897 5900 5903 5907 5909 5911 5914 5916 5919 5921 5923 5924 5925 5927 5926 5925 5927 5928 5927 5919 5918 5918 5914 5913 5915 5916
5808 5811 5814 5817 5823 5828 5833 5839 5843 5856 5863 5868 5870 5872 5876 5880 5883 5885 5888 5892 5896 5900 5902 5905 5909 5912 5915 5917 5918 5919 5921 5922 5922 5923 5922 5922 5924 5926 5922 5915 5908 5908 5912 5914 5913
5802 5806 5808 5812 5814 5818 5824 5828 5840 5852 5856 5860 5863 5868 5870 5875 5879 5881 5884 5889 5892 5896 5899 5901 5904 5907 5910 5913 5915 5916 5917 5919 5918 5919 5919 5922 5920 5920 5916 5911 5907 5911 5900 5911 5909
5795 5799 5802 5806 5806 5809 5814 5823 5838 5845 5848 5854 5859 5864 5868 5872 5875 5877 5880 5885 5888 5891 5896 5900 5901 5904 5906 5908 5911 5913 5915 5915 5915 5915 5915 5916 5916 5915 5909 5907 5905 5910 5909 5907 5908
5788 5791 5798 5798 5801 5804 5809 5821 5832 5835 5839 5846 5851 5855 5862 5867 5873 5874 5878 5881 5884 5888 5892 5897 5898 5901 5905 5906 5908 5909 5910 5911 5912 5912 5911 5911 5912 5906 5904 5902 5898 5900 5899 5901 5906
5780 5785 5788 5793 5798 5801 5810 5817 5824 5824 5830 5836 5844 5851 5855 5860 5865 5871 5877 5879 5881 5884 5887 5891 5894 5896 5898 5903 5903 5905 5905 5906 5905 5906 5906 5905 5905 5901 5900 5892 5894 5883 5875 5892 5901
5772 5779 5783 5788 5794 5800 5805 5811 5815 5818 5823 5831 5838 5845 5852 5853 5860 5866 5871 5872 5875 5878 5882 5885 5886 5892 5895 5898 5900 5900 5901 5902 5902 5901 5901 5902 5903 5897 5897 5891 5887 5876 5861 5882 5893
5767 5773 5775 5781 5788 5792 5797 5803 5809 5812 5818 5827 5833 5838 5842 5848 5853 5859 5861 5865 5869 5874 5877 5879 5882 5886 5890 5893 5893 5894 5896 5897 5898 5897 5897 5897 5895 5894 5894 5895 5890 5884 5889 5883 5887
5758 5761 5764 5771 5779 5787 5793 5800 5803 5806 5811 5818 5825 5829 5836 5843 5847 5855 5855 5857 5860 5866 5871 5875 5879 5881 5885 5887 5886 5888 5889 5893 5894 5894 5893 5893 5889 5889 5890 5891 5886 5889 5888 5886 5889
5751 5757 5766 5769 5775 5779 5784 5790 5797 5801 5804 5812 5820 5825 5830 5837 5843 5844 5845 5846 5854 5859 5865 5867 5871 5874 5877 5881 5884 5885 5886 5886 5888 5889 5889 5886 5885 5881 5880 5879 5882 5881 5884 5882 5885
5744 5750 5757 5760 5768 5773 5776 5781 5789 5793 5800 5807 5812 5815 5821 5823 5825 5830 5839 5846 5848 5849 5858 5864 5865 5870 5872 5877 5876 5877 5884 5881 5881 5880 5878 5879 5878 5877 5874 5875 5872 5875 5881 5876 5878